FW7644 Weather Reports


Display with metric or nautical units.
time (UTC)temp
F
wind
direction
speed
MPH
gust
MPH
rain 1hr
in
rain 24hr
in
rain mn
in
humidity
%
barometer
mb
20260503235037 53 0.0 0.0 0.00 0.03 0.03 99 1023.9
20260503234536 53 0.0 0.0 0.00 0.03 0.03 99 1023.8
20260503234034 53 0.0 0.0 0.00 0.03 0.03 99 1023.8
20260503233531 53 0.0 0.0 0.00 0.03 0.03 99 1023.8
20260503233030 53 0.0 0.0 0.00 0.03 0.03 99 1023.8
20260503232528 53 0.0 0.0 0.00 0.03 0.03 99 1023.7
20260503232027 53 0.0 0.0 0.00 0.03 0.03 99 1023.7
20260503231524 53 0.0 0.0 0.00 0.03 0.03 99 1023.6
20260503231023 53 0.0 0.0 0.00 0.03 0.03 99 1023.6
20260503230521 53 0.0 0.0 0.00 0.03 0.03 99 1023.5
20260503230019 53 0.0 0.0 0.00 0.03 0.03 98 1023.5
20260503225517 53 0.0 0.0 0.00 0.03 0.03 98 1023.4
20260503225015 53 0.0 0.0 0.00 0.03 0.03 98 1023.4
20260503224513 53 0.0 0.0 0.00 0.03 0.03 97 1023.4
20260503224012 53 0.0 0.0 0.00 0.03 0.03 97 1023.4
20260503223510 53 0.0 0.0 0.00 0.03 0.03 97 1023.4
20260503223008 53 0.0 0.0 0.00 0.03 0.03 97 1023.4
20260503222506 53 0.0 0.0 0.00 0.03 0.03 96 1023.4
20260503222005 53 0.0 0.0 0.00 0.03 0.03 96 1023.3
20260503221503 53 0.0 0.0 0.00 0.03 0.03 96 1023.3
20260503221001 53 0.0 0.0 0.00 0.03 0.03 95 1023.3
20260503220500 53 0.0 0.0 0.00 0.03 0.03 95 1023.2
20260503215958 53 0.0 0.0 0.00 0.06 0.03 95 1023.2
20260503215456 53 0.0 0.0 0.00 0.06 0.03 95 1023.2
20260503214955 53 0.0 0.0 0.00 0.06 0.03 95 1023.2
20260503214453 53 0.0 0.0 0.00 0.06 0.03 95 1023.2
20260503213952 53 0.0 0.0 0.00 0.06 0.03 95 1023.2
20260503213450 53 0.0 0.0 0.00 0.06 0.03 95 1023.2
20260503212948 53 0.0 0.0 0.00 0.06 0.03 94 1023.3
20260503212446 53 0.0 0.0 0.00 0.06 0.03 95 1023.2
20260503211945 53 0.0 0.0 0.00 0.06 0.03 95 1023.1
20260503211443 53 0.0 0.0 0.00 0.06 0.03 95 1023.1
20260503210941 53 0.0 0.0 0.00 0.06 0.03 94 1023.0
20260503210440 53 0.0 0.0 0.00 0.06 0.03 95 1022.9
20260503205938 53 0.0 0.0 0.00 0.08 0.03 94 1022.9
20260503205435 53 0.0 0.0 0.00 0.08 0.03 94 1022.9
20260503204933 53 0.0 0.0 0.00 0.08 0.03 94 1022.9
20260503204432 53 0.0 0.0 0.00 0.08 0.03 93 1023.0
20260503203930 53 0.0 0.0 0.00 0.08 0.03 92 1023.0
20260503203428 54 0.0 0.0 0.00 0.08 0.03 91 1022.9
20260503202926 54 0.0 0.0 0.00 0.08 0.03 90 1022.8
20260503202424 55 0.0 0.0 0.00 0.08 0.03 90 1022.9
20260503201923 54 0.0 0.0 0.00 0.08 0.03 91 1022.9
20260503201420 54 0.0 0.0 0.00 0.08 0.03 92 1022.9
20260503200919 54 0.0 0.0 0.00 0.08 0.03 92 1022.9
20260503200417 54 0.0 0.0 0.00 0.08 0.03 94 1022.9
20260503195916 54 0.0 0.0 0.00 0.08 0.03 95 1022.9
20260503195414 54 0.0 0.0 0.00 0.08 0.03 95 1023.0
20260503194913 53 0.0 0.0 0.00 0.08 0.03 95 1023.0
20260503194411 53 0.0 0.0 0.00 0.08 0.03 96 1023.0
20260503193910 53 0.0 0.0 0.00 0.08 0.03 95 1023.0
20260503193408 53 0.0 0.0 0.00 0.08 0.03 95 1023.0
20260503192906 54 0.0 0.0 0.00 0.08 0.03 94 1023.1
20260503192404 54 0.0 0.0 0.00 0.08 0.03 93 1023.0
20260503191902 54 0.0 0.0 0.00 0.08 0.03 92 1023.1
20260503191401 54 0.0 0.0 0.00 0.08 0.03 92 1023.3
20260503190859 54 0.0 0.0 0.00 0.08 0.03 92 1023.5
20260503190357 54 0.0 0.0 0.00 0.08 0.03 92 1023.5
20260503185856 54 0.0 0.0 0.00 0.08 0.03 91 1023.5
20260503185354 54 0.0 0.0 0.00 0.08 0.03 90 1023.4
20260503184852 54 0.0 0.0 0.00 0.08 0.03 90 1023.4
20260503184351 54 0.0 0.0 0.00 0.08 0.03 91 1023.4
20260503183849 54 0.0 0.0 0.00 0.08 0.03 91 1023.4
20260503183347 55 0.0 0.0 0.00 0.08 0.03 91 1023.5
20260503182846 54 0.0 0.0 0.00 0.08 0.03 90 1023.4
20260503182344 55 0.0 0.0 0.00 0.08 0.03 90 1023.4
20260503181842 54 0.0 0.0 0.00 0.08 0.03 89 1023.4
20260503181341 55 0.0 0.0 0.00 0.08 0.03 88 1023.4
20260503180839 55 0.0 0.0 0.00 0.08 0.03 87 1023.4
20260503180337 55 0.0 0.0 0.00 0.08 0.03 85 1023.4
20260503175836 55 0.0 0.0 0.00 0.08 0.03 86 1023.4
20260503175333 55 0.0 0.0 0.00 0.08 0.03 85 1023.3
20260503174832 56 0.0 0.0 0.00 0.08 0.03 83 1023.2
20260503174330 56 0.0 0.0 0.00 0.08 0.03 86 1023.2
20260503173828 55 0.0 0.0 0.00 0.08 0.03 87 1023.1
20260503173327 56 0.0 0.0 0.00 0.08 0.03 85 1023.1
20260503172825 56 0.0 0.0 0.00 0.08 0.03 86 1023.1
20260503172324 55 0.0 0.0 0.00 0.08 0.03 87 1023.3
20260503171822 55 0.0 0.0 0.00 0.08 0.03 87 1023.4
20260503171320 55 0.0 0.0 0.00 0.08 0.03 86 1023.5
20260503170819 56 0.0 0.0 0.00 0.08 0.03 88 1023.6
20260503170317 55 0.0 0.0 0.00 0.08 0.03 91 1023.7
20260503150738 56 0.0 0.0 0.00 0.06 0.01 92 1024.9
20260503150236 55 0.0 0.0 0.00 0.06 0.01 90 1024.9
20260503140215 54 0.0 0.0 0.00 0.08 0.01 96 1025.2
20260503131157 55 0.0 0.0 0.00 0.19 0.01 96 1025.2
20260503130656 55 0.0 0.0 0.00 0.19 0.01 96 1025.1
20260503130154 55 0.0 0.0 0.00 0.19 0.01 96 1025.0
20260503120129 56 0.0 0.0 0.00 0.20 0.01 99 1024.1
20260503110609 56 0.0 0.0 0.00 0.20 0.01 99 1023.6
20260503110107 57 0.0 0.0 0.00 0.20 0.01 99 1023.5
20260503081514 57 0.0 0.0 0.01 0.20 0.01 99 1021.5
20260503081012 57 0.0 0.0 0.01 0.20 0.01 99 1021.4
20260503080511 57 0.0 0.0 0.01 0.20 0.01 99 1021.4
20260503072458 56 0.0 0.0 0.00 0.19 0.00 99 1021.3
20260503071956 56 0.0 0.0 0.00 0.19 0.00 99 1021.3
20260503071455 56 0.0 0.0 0.00 0.19 0.00 99 1021.3
20260503070953 56 0.0 0.0 0.00 0.19 0.00 99 1021.3
20260503070451 56 0.0 0.0 0.00 0.19 0.00 99 1021.3
20260503054929 55 0.0 0.0 0.00 0.19 0.00 99 1021.7
20260503054428 55 0.0 0.0 0.00 0.19 0.00 99 1021.7
20260503053926 55 0.0 0.0 0.00 0.19 0.00 99 1021.8
20260503053425 54 0.0 0.0 0.00 0.19 0.00 99 1021.9
20260503052923 54 0.0 0.0 0.00 0.19 0.00 99 1021.9
20260503052421 54 0.0 0.0 0.00 0.19 0.00 99 1021.9
20260503051919 54 0.0 0.0 0.00 0.19 0.00 99 1021.9
20260503051418 54 0.0 0.0 0.00 0.19 0.00 99 1021.8
20260503050916 54 0.0 0.0 0.00 0.19 0.00 99 1021.9
20260503050415 54 0.0 0.0 0.00 0.19 0.00 99 1022.0
20260503045913 54 0.0 0.0 0.00 0.19 0.00 99 1022.0
20260503045412 54 0.0 0.0 0.00 0.19 0.00 99 1022.1
20260503044910 55 0.0 0.0 0.00 0.19 0.00 99 1022.3
20260503044409 55 0.0 0.0 0.00 0.19 0.00 99 1022.3
20260503043908 55 0.0 0.0 0.00 0.19 0.00 99 1022.3
20260503043406 55 0.0 0.0 0.00 0.19 0.00 99 1022.3
20260503042904 55 0.0 0.0 0.00 0.19 0.00 99 1022.2
20260503042402 56 0.0 0.0 0.00 0.19 0.00 99 1022.1
20260503041901 55 0.0 0.0 0.00 0.19 0.00 99 1022.0
20260503041359 55 0.0 0.0 0.00 0.19 0.00 99 1022.1
20260503040857 55 0.0 0.0 0.00 0.19 0.00 99 1022.1
20260503040356 55 0.0 0.0 0.00 0.19 0.00 99 1022.0
20260503035854 55 0.0 0.0 0.00 0.19 0.00 99 1022.1
20260503035352 55 0.0 0.0 0.00 0.19 0.00 99 1022.2
20260503034850 55 0.0 0.0 0.00 0.19 0.00 99 1022.2
20260503034349 55 0.0 0.0 0.00 0.19 0.00 99 1022.3
20260503033847 55 0.0 0.0 0.00 0.19 0.00 99 1022.5
20260503033345 55 0.0 0.0 0.00 0.19 0.00 99 1022.6
20260503032843 55 0.0 0.0 0.00 0.19 0.00 99 1022.6
20260503032342 56 0.0 0.0 0.00 0.19 0.00 99 1022.5
20260503031840 56 0.0 0.0 0.00 0.19 0.00 99 1022.6
20260503031338 56 0.0 0.0 0.00 0.19 0.00 99 1022.6
20260503030837 56 0.0 0.0 0.00 0.19 0.00 99 1022.5
20260503030335 56 0.0 0.0 0.00 0.19 0.00 99 1022.6
20260503025833 56 0.0 0.0 0.00 0.19 0.19 99 1022.6
20260503025332 56 0.0 0.0 0.00 0.19 0.19 99 1022.5
20260503024830 56 0.0 0.0 0.00 0.19 0.19 99 1022.7
20260503024329 56 0.0 0.0 0.00 0.19 0.19 99 1022.6
20260503023828 56 0.0 0.0 0.00 0.19 0.19 99 1022.5
20260503023326 56 0.0 0.0 0.00 0.19 0.19 99 1022.7
20260503022825 56 0.0 0.0 0.00 0.19 0.19 99 1022.5
20260503022323 56 0.0 0.0 0.00 0.19 0.19 99 1022.7
20260503021821 57 0.0 0.0 0.00 0.19 0.19 99 1022.6
20260503021319 57 0.0 0.0 0.00 0.19 0.19 99 1022.6
20260503020817 57 0.0 0.0 0.00 0.19 0.19 99 1022.6
20260503020315 57 0.0 0.0 0.00 0.19 0.19 99 1022.6
20260503015813 57 0.0 0.0 0.00 0.19 0.19 98 1022.5
20260503015312 57 0.0 0.0 0.00 0.19 0.19 98 1022.6
20260503014810 57 0.0 0.0 0.00 0.19 0.19 98 1022.6
20260503014308 57 0.0 0.0 0.00 0.19 0.19 98 1022.6
20260503013806 57 0.0 0.0 0.00 0.19 0.19 98 1022.6
20260503013304 57 0.0 0.0 0.00 0.19 0.19 98 1022.7
20260503012802 57 0.0 0.0 0.00 0.19 0.19 98 1022.7
20260503012300 57 0.0 0.0 0.00 0.19 0.19 98 1022.7
20260503011757 57 0.0 0.0 0.00 0.19 0.19 98 1022.7
20260503011255 57 0.0 0.0 0.00 0.19 0.19 98 1022.7
20260503010754 57 0.0 0.0 0.00 0.19 0.19 98 1022.5
20260503010252 57 0.0 0.0 0.00 0.19 0.19 98 1022.4
20260503005751 57 0.0 0.0 0.00 0.19 0.19 98 1022.4
20260503005249 57 0.0 0.0 0.00 0.19 0.19 98 1022.6
20260503004747 57 0.0 0.0 0.00 0.19 0.19 98 1022.7
20260503004245 58 0.0 0.0 0.00 0.19 0.19 98 1022.7
20260503003743 58 0.0 0.0 0.00 0.19 0.19 98 1022.6
20260503003241 58 0.0 0.0 0.00 0.19 0.19 97 1022.6
20260503002739 58 0.0 0.0 0.00 0.19 0.19 97 1022.3
20260503002237 58 0.0 0.0 0.00 0.19 0.19 97 1022.2
20260503001735 58 0.0 0.0 0.00 0.19 0.19 97 1022.5
20260503001233 58 0.0 0.0 0.00 0.19 0.19 97 1022.4
20260503000732 58 0.0 0.0 0.00 0.19 0.19 97 1022.5
20260503000230 58 0.0 0.0 0.00 0.19 0.19 97 1022.1
20260502235728 58 0.0 0.0 0.00 0.19 0.19 97 1022.0